,,,PA_Meas_PMT16A,,PR_Meas_QMR101_102,,RH_Meas_QMH101,,SR_Meas_QMS101,,TA_Meas_QMH101,,GenWind,,GenWind,
date,time,status,PA,status,PR,status,RH,status,SR,status,TA,status,DirAvg,status,SpdAvg,
2011-05-03, 00:00:04,VALID,999.024,VALID,0,VALID,92.9669,VALID,0,VALID,23.9744,VALID,304,VALID,1.0668,
2011-05-03, 00:01:04,VALID,998.997,VALID,0,VALID,92.9517,VALID,0,VALID,23.9531,VALID,258,VALID,1.13594,
2011-05-03, 00:02:04,VALID,998.989,VALID,0,VALID,92.9669,VALID,0,VALID,23.9531,VALID,281,VALID,0.910937,
2011-05-03, 00:03:04,VALID,998.936,VALID,0,VALID,92.9593,VALID,0,VALID,23.9744,VALID,273,VALID,0.681641,
2011-05-03, 00:04:04,VALID,998.898,VALID,0,VALID,92.9517,VALID,0,VALID,23.9531,VALID,290,VALID,0.94375,
2011-05-03, 00:05:04,VALID,998.81,VALID,0,VALID,92.9669,VALID,0,VALID,23.8555,VALID,221,VALID,1.96094,
2011-05-03, 00:06:04,VALID,998.77,VALID,0,VALID,92.883,VALID,0,VALID,23.8768,VALID,230,VALID,2.01172,
2011-05-03, 00:07:04,VALID,998.734,VALID,0,VALID,92.822,VALID,0,VALID,23.8963,VALID,253,VALID,1.36406,
2011-05-03, 00:08:04,VALID,998.699,VALID,0,VALID,92.7457,VALID,0,VALID,23.9159,VALID,236,VALID,0.596875,
2011-05-03, 00:09:04,VALID,998.634,VALID,0,VALID,92.6694,VALID,0,VALID,23.9159,VALID,262,VALID,0.746094,
2011-05-03, 00:10:04,VALID,998.604,VALID,0,VALID,92.616,VALID,0,VALID,23.8963,VALID,233,VALID,0.525,
2011-05-03, 00:11:05,VALID,998.548,VALID,0,VALID,92.5549,VALID,0,VALID,23.8555,VALID,225,VALID,0.556641,
2011-05-03, 00:12:05,VALID,998.531,VALID,0,VALID,92.5168,VALID,0,VALID,23.8573,VALID,274,VALID,0.934375,
2011-05-03, 00:13:05,VALID,998.466,VALID,0,VALID,92.471,VALID,0,VALID,23.8573,VALID,248,VALID,0.428906,
2011-05-03, 00:14:05,VALID,998.452,VALID,0,VALID,92.4328,VALID,0.112286,VALID,23.8573,VALID,239,VALID,0.604688,
2011-05-03, 00:15:05,VALID,998.418,VALID,0,VALID,92.41,VALID,0,VALID,23.8378,VALID,225,VALID,0.816797,
2011-05-03, 00:16:05,VALID,998.425,VALID,0,VALID,92.41,VALID,0,VALID,23.8183,VALID,203,VALID,0.733594,
2011-05-03, 00:17:05,VALID,998.426,VALID,0,VALID,92.4023,VALID,0,VALID,23.8183,VALID,210,VALID,1.64805,
2011-05-03, 00:18:05,VALID,998.399,VALID,0,VALID,92.3642,VALID,0,VALID,23.8378,VALID,211,VALID,1.49766,
2011-05-03, 00:19:05,VALID,998.38,VALID,0,VALID,92.3108,VALID,0,VALID,23.8378,VALID,203,VALID,1.84727,
2011-05-03, 00:20:05,VALID,998.331,VALID,0,VALID,92.2955,VALID,0,VALID,23.8378,VALID,203,VALID,1.48828,
2011-05-03, 00:21:05,VALID,998.318,VALID,0,VALID,92.2421,VALID,0,VALID,23.8573,VALID,206,VALID,1.19609,
2011-05-03, 00:22:05,VALID,998.293,VALID,0,VALID,92.204,VALID,0,VALID,23.8573,VALID,193,VALID,1.01719,
2011-05-03, 00:23:05,VALID,998.288,VALID,0,VALID,92.1963,VALID,0,VALID,23.8378,VALID,212,VALID,1.53047,
2011-05-03, 00:24:05,VALID,998.243,VALID,0,VALID,92.1506,VALID,0,VALID,23.8573,VALID,190,VALID,0.826172,
2011-05-03, 00:25:05,VALID,998.241,VALID,0,VALID,92.1353,VALID,0,VALID,23.8591,VALID,200,VALID,1.20391,
2011-05-03, 00:26:05,VALID,998.24,VALID,0,VALID,92.12,VALID,0,VALID,23.8573,VALID,202,VALID,0.747656,
2011-05-03, 00:27:05,VALID,998.199,VALID,0,VALID,92.1124,VALID,0,VALID,23.8768,VALID,186,VALID,1.08945,
2011-05-03, 00:28:05,VALID,998.194,VALID,0,VALID,92.1658,VALID,0,VALID,23.8963,VALID,195,VALID,0.848437,
2011-05-03, 00:29:05,VALID,998.196,VALID,0,VALID,92.2192,VALID,0,VALID,23.8963,VALID,207,VALID,0.827344,
2011-05-03, 00:30:05,VALID,998.189,VALID,0,VALID,92.1963,VALID,0,VALID,23.8768,VALID,192,VALID,0.616016,
2011-05-03, 00:31:05,VALID,998.149,VALID,0,VALID,92.2116,VALID,0,VALID,23.8982,VALID,192,VALID,0.863672,
2011-05-03, 00:32:05,VALID,998.133,VALID,0,VALID,92.2345,VALID,0,VALID,23.8768,VALID,195,VALID,1.39063,
2011-05-03, 00:33:05,VALID,998.12,VALID,0,VALID,92.2192,VALID,0,VALID,23.9159,VALID,187,VALID,1.28437,
2011-05-03, 00:34:05,VALID,998.114,VALID,0,VALID,92.2421,VALID,0,VALID,23.9159,VALID,182,VALID,1.52617,
2011-05-03, 00:35:05,VALID,998.105,VALID,0,VALID,92.2497,VALID,0,VALID,23.9159,VALID,180,VALID,1.26016,
2011-05-03, 00:36:05,VALID,998.078,VALID,0.5,VALID,92.2726,VALID,0,VALID,23.9354,VALID,178,VALID,1.94492,
2011-05-03, 00:37:05,VALID,998.066,VALID,0,VALID,92.3031,VALID,0,VALID,23.9549,VALID,196,VALID,1.34336,
2011-05-03, 00:38:05,VALID,998.081,VALID,0,VALID,92.3108,VALID,0,VALID,23.9939,VALID,204,VALID,1.50508,
2011-05-03, 00:39:05,VALID,998.058,VALID,0,VALID,92.3031,VALID,0,VALID,23.9939,VALID,205,VALID,1.65039,
2011-05-03, 00:40:05,VALID,998.111,VALID,0,VALID,92.2955,VALID,0,VALID,24.0153,VALID,197,VALID,1.10898,
2011-05-03, 00:41:05,VALID,998.123,VALID,0,VALID,92.2497,VALID,0,VALID,23.9939,VALID,189,VALID,1.31523,
2011-05-03, 00:42:05,VALID,998.124,VALID,0,VALID,92.2421,VALID,0,VALID,23.9939,VALID,199,VALID,1.20586,
2011-05-03, 00:43:05,VALID,998.152,VALID,0,VALID,92.2345,VALID,0,VALID,24.0134,VALID,189,VALID,0.864062,
2011-05-03, 00:44:05,VALID,998.138,VALID,0,VALID,92.2421,VALID,0,VALID,24.0134,VALID,166,VALID,1.26367,
2011-05-03, 00:45:05,VALID,998.136,VALID,0,VALID,92.2421,VALID,0,VALID,24.0134,VALID,178,VALID,1.28867,
2011-05-03, 00:46:05,VALID,998.149,VALID,0,VALID,92.2421,VALID,0,VALID,23.9939,VALID,198,VALID,1.8918,
2011-05-03, 00:47:05,VALID,998.137,VALID,0,VALID,92.2803,VALID,0,VALID,24.0134,VALID,181,VALID,1.85,
2011-05-03, 00:48:05,VALID,998.128,VALID,0,VALID,92.265,VALID,0,VALID,24.0311,VALID,175,VALID,1.99727,
2011-05-03, 00:49:05,VALID,998.194,VALID,0,VALID,92.2803,VALID,0,VALID,24.0525,VALID,187,VALID,1.74492,
2011-05-03, 00:50:05,VALID,998.143,VALID,0,VALID,92.2574,VALID,0,VALID,24.0116,VALID,178,VALID,1.36406,
2011-05-03, 00:51:05,VALID,998.169,VALID,0,VALID,92.2497,VALID,0,VALID,24.0329,VALID,151,VALID,1.52344,
2011-05-03, 00:52:05,VALID,998.195,VALID,0,VALID,92.2421,VALID,0,VALID,24.0329,VALID,180,VALID,1.46328,
2011-05-03, 00:53:05,VALID,998.187,VALID,0,VALID,92.2345,VALID,0,VALID,24.0329,VALID,163,VALID,1.61211,
2011-05-03, 00:54:05,VALID,998.199,VALID,0,VALID,92.1658,VALID,0,VALID,24.0329,VALID,166,VALID,1.44844,
2011-05-03, 00:55:05,VALID,998.211,VALID,0,VALID,92.1277,VALID,0,VALID,24.0329,VALID,174,VALID,1.90195,
2011-05-03, 00:56:05,VALID,998.229,VALID,0,VALID,91.9445,VALID,0,VALID,24.0329,VALID,207,VALID,1.77891,
2011-05-03, 00:57:05,VALID,998.249,VALID,0,VALID,91.708,VALID,0,VALID,24.072,VALID,195,VALID,2.94805,
2011-05-03, 00:58:05,VALID,998.223,VALID,0,VALID,91.3952,VALID,0,VALID,24.0915,VALID,204,VALID,1.5082,
2011-05-03, 00:59:05,VALID,998.233,VALID,0,VALID,91.0595,VALID,0,VALID,24.1128,VALID,194,VALID,1.88398,
2011-05-03, 01:00:05,VALID,998.207,VALID,0,VALID,90.9298,VALID,0,VALID,24.1305,VALID,180,VALID,2.16055,
2011-05-03, 01:01:05,VALID,998.201,VALID,0,VALID,90.6017,VALID,0,VALID,24.1092,VALID,181,VALID,2.55352,
2011-05-03, 01:02:05,VALID,998.173,VALID,0,VALID,90.1897,VALID,0,VALID,24.15,VALID,173,VALID,2.34766,
2011-05-03, 01:03:05,VALID,998.167,VALID,0,VALID,90.0295,VALID,0,VALID,24.15,VALID,225,VALID,0.864844,
2011-05-03, 01:04:05,VALID,998.129,VALID,0,VALID,90.0066,VALID,0,VALID,24.1305,VALID,184,VALID,0.889453,
2011-05-03, 01:05:05,VALID,998.129,VALID,0,VALID,89.9074,VALID,0,VALID,24.111,VALID,191,VALID,1.34531,
2011-05-03, 01:06:05,VALID,998.101,VALID,0,VALID,89.7549,VALID,0,VALID,24.1305,VALID,185,VALID,0.834375,
2011-05-03, 01:07:05,VALID,998.07,VALID,0,VALID,89.6404,VALID,0,VALID,24.111,VALID,189,VALID,0.968359,
2011-05-03, 01:08:05,VALID,998.036,VALID,0,VALID,89.236,VALID,0,VALID,24.072,VALID,181,VALID,0.876172,
2011-05-03, 01:09:05,VALID,997.997,VALID,0,VALID,89.0834,VALID,0,VALID,24.072,VALID,174,VALID,0.359375,
2011-05-03, 01:10:05,VALID,997.98,VALID,0,VALID,89.0834,VALID,0,VALID,24.072,VALID,194,VALID,0.198437,
2011-05-03, 01:11:05,VALID,997.903,VALID,0,VALID,89.1216,VALID,0,VALID,24.0329,VALID,194,VALID,0.378906,
2011-05-03, 01:12:05,VALID,997.864,VALID,0,VALID,89.2132,VALID,0,VALID,24.0134,VALID,194,VALID,0.126953,
2011-05-03, 01:13:05,VALID,997.861,VALID,0,VALID,89.0987,VALID,0,VALID,23.9939,VALID,194,VALID,0,
2011-05-03, 01:14:05,VALID,997.82,VALID,0,VALID,89.0758,VALID,0,VALID,24.0134,VALID,194,VALID,0,
2011-05-03, 01:15:05,VALID,997.801,VALID,0,VALID,88.9385,VALID,0,VALID,24.0153,VALID,194,VALID,0,
2011-05-03, 01:16:05,VALID,997.789,VALID,0,VALID,88.8088,VALID,0,VALID,24.0348,VALID,194,VALID,0,
2011-05-03, 01:17:05,VALID,997.734,VALID,0,VALID,88.9919,VALID,0,VALID,24.0134,VALID,194,VALID,0,
2011-05-03, 01:18:05,VALID,997.723,VALID,0,VALID,89.2589,VALID,0,VALID,23.9939,VALID,194,VALID,0,
2011-05-03, 01:19:05,VALID,997.701,VALID,0,VALID,89.4726,VALID,0,VALID,23.9354,VALID,194,VALID,0,
2011-05-03, 01:20:05,VALID,997.668,VALID,0,VALID,89.6938,VALID,0,VALID,23.9177,VALID,194,VALID,0,
2011-05-03, 01:21:05,VALID,997.686,VALID,0,VALID,89.8159,VALID,0,VALID,23.8768,VALID,85,VALID,0,
2011-05-03, 01:22:05,VALID,997.666,VALID,0,VALID,89.8922,VALID,0,VALID,23.8573,VALID,66,VALID,0,
2011-05-03, 01:23:05,VALID,997.712,VALID,0,VALID,89.8159,VALID,0,VALID,23.8591,VALID,58,VALID,0.645703,
2011-05-03, 01:24:05,VALID,997.764,VALID,0,VALID,89.7167,VALID,0,VALID,23.8378,VALID,58,VALID,0.435156,
2011-05-03, 01:25:05,VALID,997.779,VALID,0,VALID,89.5412,VALID,0,VALID,23.8378,VALID,60,VALID,0.470313,
2011-05-03, 01:26:05,VALID,997.773,VALID,0,VALID,89.4954,VALID,0,VALID,23.8768,VALID,62,VALID,0.458594,
2011-05-03, 01:27:05,VALID,997.791,VALID,0,VALID,89.5641,VALID,0,VALID,23.8963,VALID,74,VALID,0.720312,
2011-05-03, 01:28:05,VALID,997.801,VALID,0,VALID,89.526,VALID,0,VALID,23.8963,VALID,93,VALID,0.269531,
2011-05-03, 01:29:05,VALID,997.81,VALID,0,VALID,89.2666,VALID,0,VALID,23.9354,VALID,93,VALID,0.515625,
2011-05-03, 01:30:05,VALID,997.776,VALID,0,VALID,89.1826,VALID,0,VALID,23.9354,VALID,86,VALID,0.772266,
2011-05-03, 01:31:05,VALID,997.762,VALID,0,VALID,89.175,VALID,0,VALID,23.9336,VALID,86,VALID,0.546875,
2011-05-03, 01:32:05,VALID,997.748,VALID,0,VALID,89.0987,VALID,0,VALID,23.9549,VALID,86,VALID,0.453516,
2011-05-03, 01:33:05,VALID,997.689,VALID,0,VALID,88.9919,VALID,0,VALID,23.9744,VALID,62,VALID,1.01328,
2011-05-03, 01:34:05,VALID,997.678,VALID,0,VALID,88.5875,VALID,0,VALID,23.9939,VALID,60,VALID,0.888281,
2011-05-03, 01:35:05,VALID,997.616,VALID,0,VALID,88.1145,VALID,0,VALID,24.0329,VALID,56,VALID,1.45625,
2011-05-03, 01:36:05,VALID,997.576,VALID,0,VALID,87.0921,VALID,0,VALID,24.111,VALID,54,VALID,1.45859,
2011-05-03, 01:37:05,VALID,997.564,VALID,0,VALID,86.1994,VALID,0,VALID,24.2281,VALID,61,VALID,1.68398,
2011-05-03, 01:38:05,VALID,997.56,VALID,0,VALID,85.7417,VALID,0,VALID,24.3062,VALID,46,VALID,1.73828,
2011-05-03, 01:39:05,VALID,997.516,VALID,0,VALID,84.8414,VALID,0,VALID,24.4037,VALID,56,VALID,1.26523,
2011-05-03, 01:40:05,VALID,997.51,VALID,0,VALID,85.1847,VALID,0,VALID,24.4818,VALID,19,VALID,1.49531,
2011-05-03, 01:41:05,VALID,997.581,VALID,0,VALID,85.9019,VALID,0,VALID,24.4623,VALID,311,VALID,1.48281,
2011-05-03, 01:42:05,VALID,997.551,VALID,0,VALID,86.0163,VALID,0,VALID,24.4233,VALID,321,VALID,0.901563,
2011-05-03, 01:43:05,VALID,997.567,VALID,0,VALID,86.0163,VALID,0,VALID,24.4233,VALID,21,VALID,0.78125,
2011-05-03, 01:44:05,VALID,997.623,VALID,0,VALID,86.3673,VALID,0,VALID,24.3647,VALID,325,VALID,0.833984,
2011-05-03, 01:45:05,VALID,997.671,VALID,0,VALID,87.0082,VALID,0,VALID,24.3062,VALID,274,VALID,0.620313,
2011-05-03, 01:46:05,VALID,997.669,VALID,0,VALID,87.4126,VALID,0,VALID,24.2476,VALID,268,VALID,0,
2011-05-03, 01:47:05,VALID,997.675,VALID,0,VALID,87.6567,VALID,0,VALID,24.2086,VALID,266,VALID,0.437891,
2011-05-03, 01:48:05,VALID,997.698,VALID,0,VALID,87.8246,VALID,0,VALID,24.1891,VALID,249,VALID,0.0570313,
2011-05-03, 01:49:05,VALID,997.703,VALID,0,VALID,87.9771,VALID,0,VALID,24.1519,VALID,249,VALID,0,
2011-05-03, 01:50:05,VALID,997.689,VALID,0,VALID,88.1068,VALID,0,VALID,24.0915,VALID,249,VALID,0,
2011-05-03, 01:51:05,VALID,997.683,VALID,0,VALID,88.3205,VALID,0,VALID,24.0915,VALID,249,VALID,0,
2011-05-03, 01:52:05,VALID,997.64,VALID,0,VALID,88.5112,VALID,0,VALID,24.072,VALID,249,VALID,0,
2011-05-03, 01:53:05,VALID,997.612,VALID,0,VALID,88.7249,VALID,0,VALID,24.0329,VALID,249,VALID,0,
2011-05-03, 01:54:05,VALID,997.622,VALID,0,VALID,88.8851,VALID,0,VALID,24.0134,VALID,249,VALID,0,
2011-05-03, 01:55:05,VALID,997.602,VALID,0,VALID,88.9232,VALID,0,VALID,24.0329,VALID,265,VALID,0,
2011-05-03, 01:56:05,VALID,997.561,VALID,0,VALID,88.8774,VALID,0,VALID,24.0329,VALID,333,VALID,0.690625,
2011-05-03, 01:57:05,VALID,997.543,VALID,0,VALID,88.9919,VALID,0,VALID,24.0134,VALID,333,VALID,0.523438,
2011-05-03, 01:58:05,VALID,997.535,VALID,0,VALID,89.2437,VALID,0,VALID,23.9744,VALID,319,VALID,0.610547,
2011-05-03, 01:59:05,VALID,997.507,VALID,0,VALID,89.442,VALID,0,VALID,23.914,VALID,317,VALID,0.338672,
2011-05-03, 02:00:05,VALID,997.514,VALID,0,VALID,89.6938,VALID,0,VALID,23.9159,VALID,317,VALID,0.620703,
2011-05-03, 02:01:05,VALID,997.51,VALID,0,VALID,89.9837,VALID,0,VALID,23.8768,VALID,317,VALID,0.469922,
2011-05-03, 02:02:05,VALID,997.5,VALID,0,VALID,90.2203,VALID,0,VALID,23.8378,VALID,317,VALID,0.274219,
2011-05-03, 02:03:05,VALID,997.506,VALID,0,VALID,90.4186,VALID,0,VALID,23.7988,VALID,317,VALID,0.557813,
2011-05-03, 02:04:05,VALID,997.449,VALID,0,VALID,90.617,VALID,0,VALID,23.7793,VALID,317,VALID,0,
2011-05-03, 02:05:05,VALID,997.434,VALID,0,VALID,90.7772,VALID,0,VALID,23.7402,VALID,317,VALID,0,
2011-05-03, 02:06:05,VALID,997.433,VALID,0,VALID,90.9222,VALID,0,VALID,23.7207,VALID,317,VALID,0,
2011-05-03, 02:07:05,VALID,997.417,VALID,0,VALID,91.09,VALID,0,VALID,23.7012,VALID,317,VALID,0,
2011-05-03, 02:08:05,VALID,997.414,VALID,0,VALID,91.174,VALID,0,VALID,23.6817,VALID,317,VALID,0,
2011-05-03, 02:09:05,VALID,997.448,VALID,0,VALID,91.2731,VALID,0,VALID,23.6622,VALID,317,VALID,0,
2011-05-03, 02:10:05,VALID,997.412,VALID,0,VALID,91.3723,VALID,0,VALID,23.6427,VALID,317,VALID,0,
2011-05-03, 02:11:05,VALID,997.396,VALID,0,VALID,91.4791,VALID,0,VALID,23.6232,VALID,317,VALID,0,
2011-05-03, 02:12:05,VALID,997.406,VALID,0,VALID,91.5707,VALID,0,VALID,23.6232,VALID,317,VALID,0,
2011-05-03, 02:13:05,VALID,997.385,VALID,0,VALID,91.6699,VALID,0,VALID,23.6036,VALID,317,VALID,0,
2011-05-03, 02:14:05,VALID,997.42,VALID,0,VALID,91.7538,VALID,0,VALID,23.5841,VALID,317,VALID,0,
2011-05-03, 02:15:05,VALID,997.415,VALID,0,VALID,91.8454,VALID,0,VALID,23.5841,VALID,317,VALID,0,
2011-05-03, 02:16:05,VALID,997.455,VALID,0,VALID,91.8988,VALID,0,VALID,23.5646,VALID,317,VALID,0,
2011-05-03, 02:17:05,VALID,997.409,VALID,0,VALID,91.9674,VALID,0,VALID,23.5646,VALID,317,VALID,0,
2011-05-03, 02:18:05,VALID,997.427,VALID,0,VALID,92.0209,VALID,0,VALID,23.5646,VALID,317,VALID,0,
2011-05-03, 02:19:05,VALID,997.423,VALID,0,VALID,92.0743,VALID,0,VALID,23.5451,VALID,317,VALID,0,
2011-05-03, 02:20:05,VALID,997.432,VALID,0,VALID,92.0895,VALID,0,VALID,23.5646,VALID,86,VALID,0.994922,
2011-05-03, 02:21:05,VALID,997.404,VALID,0,VALID,92.1124,VALID,0,VALID,23.5646,VALID,86,VALID,0.0816406,
2011-05-03, 02:22:05,VALID,997.39,VALID,0,VALID,92.0819,VALID,0,VALID,23.5841,VALID,86,VALID,0.342969,
2011-05-03, 02:23:05,VALID,997.372,VALID,0,VALID,92.0819,VALID,0,VALID,23.6036,VALID,86,VALID,0.479297,
2011-05-03, 02:24:05,VALID,997.366,VALID,0,VALID,92.0666,VALID,0,VALID,23.6036,VALID,86,VALID,0.501953,
2011-05-03, 02:25:05,VALID,997.36,VALID,0,VALID,92.0514,VALID,0,VALID,23.6232,VALID,86,VALID,0.6375,
2011-05-03, 02:26:05,VALID,997.332,VALID,0,VALID,92.0285,VALID,0,VALID,23.6427,VALID,86,VALID,0.449609,
2011-05-03, 02:27:05,VALID,997.331,VALID,0,VALID,91.998,VALID,0,VALID,23.6427,VALID,86,VALID,0.580859,
2011-05-03, 02:28:05,VALID,997.319,VALID,0,VALID,91.9598,VALID,0,VALID,23.6835,VALID,86,VALID,0.647656,
2011-05-03, 02:29:05,VALID,997.321,VALID,0,VALID,91.9445,VALID,0,VALID,23.6817,VALID,86,VALID,0.626562,
2011-05-03, 02:30:05,VALID,997.309,VALID,0,VALID,91.853,VALID,0,VALID,23.6799,VALID,86,VALID,0.339063,
2011-05-03, 02:31:05,VALID,997.283,VALID,0,VALID,91.7843,VALID,0,VALID,23.6604,VALID,86,VALID,0,
2011-05-03, 02:32:05,VALID,997.242,VALID,0,VALID,91.7309,VALID,0,VALID,23.6817,VALID,86,VALID,0.876562,
2011-05-03, 02:33:05,VALID,997.272,VALID,0,VALID,91.7004,VALID,0,VALID,23.6817,VALID,86,VALID,0.349609,
2011-05-03, 02:34:05,VALID,997.239,VALID,0,VALID,91.647,VALID,0,VALID,23.6817,VALID,86,VALID,0.0582031,
2011-05-03, 02:35:05,VALID,997.203,VALID,0,VALID,91.6317,VALID,0,VALID,23.6604,VALID,86,VALID,0,
2011-05-03, 02:36:05,VALID,997.204,VALID,0,VALID,91.6546,VALID,0,VALID,23.6604,VALID,86,VALID,0,
2011-05-03, 02:37:05,VALID,997.19,VALID,0,VALID,91.6623,VALID,0,VALID,23.7012,VALID,86,VALID,1.19141,
2011-05-03, 02:38:05,VALID,997.212,VALID,0,VALID,91.6012,VALID,0,VALID,23.7012,VALID,93,VALID,0.710938,
2011-05-03, 02:39:05,VALID,997.232,VALID,0,VALID,91.5631,VALID,0,VALID,23.7012,VALID,137,VALID,0.4125,
2011-05-03, 02:40:05,VALID,997.236,VALID,0,VALID,91.5249,VALID,0,VALID,23.6817,VALID,150,VALID,0.63125,
2011-05-03, 02:41:05,VALID,997.235,VALID,0,VALID,91.5631,VALID,0,VALID,23.6604,VALID,150,VALID,0.556641,
2011-05-03, 02:42:05,VALID,997.22,VALID,0,VALID,91.6165,VALID,0,VALID,23.6817,VALID,153,VALID,0.348047,
2011-05-03, 02:43:05,VALID,997.202,VALID,0,VALID,91.6699,VALID,0,VALID,23.6799,VALID,153,VALID,0.567578,
2011-05-03, 02:44:05,VALID,997.191,VALID,0,VALID,91.7309,VALID,0,VALID,23.6817,VALID,138,VALID,0.576563,
2011-05-03, 02:45:05,VALID,997.217,VALID,0,VALID,91.7385,VALID,0,VALID,23.6604,VALID,134,VALID,0,
2011-05-03, 02:46:05,VALID,997.215,VALID,0,VALID,91.7385,VALID,0,VALID,23.6817,VALID,134,VALID,0,
2011-05-03, 02:47:05,VALID,997.212,VALID,0,VALID,91.7691,VALID,0,VALID,23.6817,VALID,134,VALID,0,
2011-05-03, 02:48:05,VALID,997.218,VALID,0,VALID,91.7996,VALID,0,VALID,23.6817,VALID,134,VALID,0,
2011-05-03, 02:49:05,VALID,997.222,VALID,0,VALID,91.853,VALID,0,VALID,23.7012,VALID,137,VALID,0.789063,
2011-05-03, 02:50:05,VALID,997.274,VALID,0,VALID,91.8683,VALID,0,VALID,23.7012,VALID,144,VALID,0.717578,
2011-05-03, 02:51:05,VALID,997.282,VALID,0,VALID,91.8454,VALID,0,VALID,23.6799,VALID,146,VALID,0.789844,
2011-05-03, 02:52:05,VALID,997.265,VALID,0,VALID,91.7996,VALID,0,VALID,23.6817,VALID,146,VALID,1.01211,
2011-05-03, 02:53:05,VALID,997.278,VALID,0,VALID,91.7004,VALID,0,VALID,23.6817,VALID,133,VALID,1.14727,
2011-05-03, 02:54:05,VALID,997.267,VALID,0,VALID,91.6165,VALID,0,VALID,23.6799,VALID,129,VALID,1.0457,
2011-05-03, 02:55:05,VALID,997.285,VALID,0,VALID,91.5554,VALID,0,VALID,23.7012,VALID,129,VALID,0.935156,
2011-05-03, 02:56:05,VALID,997.277,VALID,0,VALID,91.4791,VALID,0,VALID,23.7012,VALID,114,VALID,1.02109,
2011-05-03, 02:57:05,VALID,997.25,VALID,0,VALID,91.4181,VALID,0,VALID,23.7012,VALID,108,VALID,0.898438,
2011-05-03, 02:58:05,VALID,997.271,VALID,0,VALID,91.4257,VALID,0,VALID,23.7207,VALID,116,VALID,0.957422,
2011-05-03, 02:59:04,VALID,997.275,VALID,0,VALID,91.4181,VALID,0,VALID,23.7402,VALID,116,VALID,1.00078,
2011-05-03, 03:00:04,VALID,997.29,VALID,0,VALID,91.3647,VALID,0,VALID,23.7402,VALID,120,VALID,0.816406,
2011-05-03, 03:01:04,VALID,997.282,VALID,0,VALID,91.3266,VALID,0,VALID,23.7402,VALID,110,VALID,1.08359,
2011-05-03, 03:02:04,VALID,997.287,VALID,0,VALID,91.2731,VALID,0,VALID,23.7616,VALID,105,VALID,0.949219,
2011-05-03, 03:03:04,VALID,997.278,VALID,0,VALID,91.2426,VALID,0,VALID,23.7597,VALID,97,VALID,1.0293,
2011-05-03, 03:04:04,VALID,997.32,VALID,0,VALID,91.2121,VALID,0,VALID,23.7597,VALID,97,VALID,0.809766,
2011-05-03, 03:05:04,VALID,997.347,VALID,0,VALID,91.1434,VALID,0,VALID,23.7775,VALID,97,VALID,0.00585938,
2011-05-03, 03:06:04,VALID,997.36,VALID,0,VALID,91.1206,VALID,0,VALID,23.8183,VALID,97,VALID,0,
2011-05-03, 03:07:04,VALID,997.373,VALID,0.5,VALID,91.1358,VALID,0,VALID,23.8378,VALID,97,VALID,0,
2011-05-03, 03:08:04,VALID,997.419,VALID,0,VALID,91.1129,VALID,0,VALID,23.8378,VALID,97,VALID,0,
2011-05-03, 03:09:04,VALID,997.453,VALID,0,VALID,91.0214,VALID,0,VALID,23.8183,VALID,97,VALID,0,
2011-05-03, 03:10:04,VALID,997.497,VALID,0,VALID,90.9756,VALID,0,VALID,23.8573,VALID,97,VALID,0,
2011-05-03, 03:11:04,VALID,997.52,VALID,0,VALID,91.029,VALID,0,VALID,23.8768,VALID,97,VALID,0,
2011-05-03, 03:12:04,VALID,997.522,VALID,0,VALID,91.0671,VALID,0,VALID,23.8768,VALID,97,VALID,0,
2011-05-03, 03:13:04,VALID,997.522,VALID,0,VALID,91.1358,VALID,0,VALID,23.8555,VALID,97,VALID,0,
2011-05-03, 03:14:04,VALID,997.552,VALID,0,VALID,91.235,VALID,0,VALID,23.8768,VALID,97,VALID,0,
2011-05-03, 03:15:04,VALID,997.577,VALID,0,VALID,91.2121,VALID,0,VALID,23.8573,VALID,97,VALID,0,
2011-05-03, 03:16:04,VALID,997.556,VALID,0,VALID,91.2655,VALID,0,VALID,23.8573,VALID,97,VALID,0,
2011-05-03, 03:17:04,VALID,997.598,VALID,0,VALID,91.2426,VALID,0,VALID,23.8768,VALID,62,VALID,0,
2011-05-03, 03:18:04,VALID,997.611,VALID,0,VALID,91.3037,VALID,0,VALID,23.8768,VALID,24,VALID,0.637891,
2011-05-03, 03:19:04,VALID,997.618,VALID,0,VALID,91.2808,VALID,0,VALID,23.8573,VALID,24,VALID,0.449219,
2011-05-03, 03:20:04,VALID,997.629,VALID,0,VALID,91.2426,VALID,0,VALID,23.8768,VALID,24,VALID,0.465625,
2011-05-03, 03:21:04,VALID,997.634,VALID,0,VALID,91.2503,VALID,0,VALID,23.8963,VALID,196,VALID,1.47344,
2011-05-03, 03:22:04,VALID,997.644,VALID,0,VALID,91.2503,VALID,0,VALID,23.8963,VALID,214,VALID,0.0195313,
2011-05-03, 03:23:04,VALID,997.641,VALID,0,VALID,91.2121,VALID,0,VALID,23.9159,VALID,273,VALID,0,
2011-05-03, 03:24:04,VALID,997.64,VALID,0,VALID,91.1511,VALID,0,VALID,23.9159,VALID,273,VALID,0,
2011-05-03, 03:25:04,VALID,997.598,VALID,0,VALID,91.0671,VALID,0,VALID,23.8963,VALID,273,VALID,0,
2011-05-03, 03:26:04,VALID,997.588,VALID,0,VALID,90.9756,VALID,0,VALID,23.8963,VALID,273,VALID,0,
2011-05-03, 03:27:04,VALID,997.582,VALID,0,VALID,90.8993,VALID,0,VALID,23.9177,VALID,273,VALID,0,
2011-05-03, 03:28:04,VALID,997.605,VALID,0,VALID,90.8154,VALID,0,VALID,23.8963,VALID,273,VALID,0,
2011-05-03, 03:29:04,VALID,997.604,VALID,0,VALID,90.7772,VALID,0,VALID,23.8768,VALID,273,VALID,0,
2011-05-03, 03:30:04,VALID,997.607,VALID,0,VALID,90.823,VALID,0,VALID,23.8963,VALID,273,VALID,0,
2011-05-03, 03:31:04,VALID,997.61,VALID,0,VALID,90.8383,VALID,0,VALID,23.8768,VALID,272,VALID,0,
2011-05-03, 03:32:04,VALID,997.61,VALID,0,VALID,90.8306,VALID,0,VALID,23.8963,VALID,272,VALID,0,
2011-05-03, 03:33:04,VALID,997.614,VALID,0,VALID,90.823,VALID,0,VALID,23.9159,VALID,272,VALID,0,
2011-05-03, 03:34:04,VALID,997.605,VALID,0,VALID,90.8154,VALID,0,VALID,23.9159,VALID,272,VALID,0,
2011-05-03, 03:35:04,VALID,997.593,VALID,0,VALID,90.8077,VALID,0,VALID,23.9159,VALID,272,VALID,0,
2011-05-03, 03:36:04,VALID,997.62,VALID,0,VALID,90.7314,VALID,0,VALID,23.9159,VALID,272,VALID,0,
2011-05-03, 03:37:04,VALID,997.604,VALID,0,VALID,90.6933,VALID,0,VALID,23.9159,VALID,272,VALID,0,
2011-05-03, 03:38:04,VALID,997.628,VALID,0,VALID,90.5941,VALID,0,VALID,23.9159,VALID,272,VALID,0,
2011-05-03, 03:39:04,VALID,997.634,VALID,0,VALID,90.5636,VALID,0,VALID,23.9159,VALID,272,VALID,0,
2011-05-03, 03:40:04,VALID,997.655,VALID,0,VALID,90.4568,VALID,0,VALID,23.9159,VALID,272,VALID,0,
2011-05-03, 03:41:04,VALID,997.682,VALID,0,VALID,90.4186,VALID,0,VALID,23.9354,VALID,278,VALID,0,
2011-05-03, 03:42:04,VALID,997.67,VALID,0,VALID,90.2355,VALID,0,VALID,23.9159,VALID,10,VALID,0.764063,
2011-05-03, 03:43:04,VALID,997.679,VALID,0,VALID,89.9227,VALID,0,VALID,23.9549,VALID,339,VALID,0.484375,
2011-05-03, 03:44:04,VALID,997.722,VALID,0,VALID,89.2132,VALID,0,VALID,24.0134,VALID,103,VALID,0,
2011-05-03, 03:45:04,VALID,997.706,VALID,0,VALID,88.8164,VALID,0,VALID,24.0506,VALID,38,VALID,0,
2011-05-03, 03:46:04,VALID,997.678,VALID,0,VALID,88.5341,VALID,0,VALID,24.111,VALID,357,VALID,0.496875,
2011-05-03, 03:47:04,VALID,997.718,VALID,0,VALID,88.4578,VALID,0,VALID,24.15,VALID,357,VALID,0.425781,
2011-05-03, 03:48:04,VALID,997.724,VALID,0,VALID,88.4883,VALID,0,VALID,24.1696,VALID,357,VALID,0.423438,
2011-05-03, 03:49:04,VALID,997.721,VALID,0,VALID,88.3586,VALID,0,VALID,24.1696,VALID,357,VALID,0.44375,
2011-05-03, 03:50:04,VALID,997.73,VALID,0,VALID,88.1908,VALID,0,VALID,24.1891,VALID,357,VALID,0.0289063,